Terminal Aerodrome Forecast
Issued by NWS

Home | Current Version | Previous Version | Text Only | Print | Product List | Glossary On
Versions: 1 2 3 4 5 6 7 8 9 10 11 12 13 14 15 16 17 18 19 20 21 22 23 24 25 26
693
FTUS41 KBOX 121737
TAFBED
TAF
KBED 121737Z 1218/1318 24006KT P6SM SCT150
     FM122100 21006KT P6SM BKN120
     FM130500 00000KT P6SM BKN045
     FM131300 29008KT P6SM BKN035
     FM131600 30016G25KT P6SM BKN035=

USA.gov is the U.S. government's official web portal to all federal, state and local government web resources and services.